Accueil
Images satellite Prévisions 15 joursClimatMétéo marine Cyclones Foudre AéroportsFAQ Actualités A propos
Météo : Europe Afrique Amérique du Nord Amérique du Sud Asie Australie-Océanie Autres
Langues Contact

Bauru, São Paulo, Brésil

latitude: 22-19S, longitude: 049-04W, altitude: 590 m


METAR: SBBU 230700Z 14015KT CAVOK 18/16 Q1018
TAF: absent

Heure: 05:52 (07:52 UTC)

Observation

Le bulletin a été fait il y a 52 minutes, à 07:00 UTC
Vent 15 kt de sud-est
Température 18°C
Humidité 88%
Pression 1018 hPa
Visibilité 10 km ou plus
pas de nuages en-dessous de 1500 mètres et pas de cumulonimbus.

Changer d'unités
Les informations qui figurent sur ce site font l'objet d'une clause de non-responsabilité
Météo : Europe Afrique Amérique du Nord Amérique du Sud Asie Australie-Océanie Autres
Images satellite Prévisions 15 joursClimatMétéo marine Cyclones Foudre AéroportsFAQ Langues Contact Actualités A propos